contact: severine.martini@mio.osupytheas.fr, dominique.lefevre@mio.osupytheas.fr
Project:EMSO Ligure-ouest http://www.emso-fr.org/EMSO-France
Sensor Microcat Sea-Bird SBE37 SMP,  Serial 57510 
DOI : "https://doi.org/10.17882/97948" 
Title:EMSO Ligure Ouest : Data Bathybot capteur Microcat - deploiement 2023-04-28
Datetime,Profondeur,Latitude,Longitude,Temperature,Conductivite,Pression,Salinite
time,m,degree_north,degree_east,degree_C,S/m,db,PSU 
2023-12-24T00:00:49,2420,42.8014,5.9826,13.2978,4.59911,2453.514,38.4874
2023-12-24T00:03:49,2420,42.8014,5.9826,13.2977,4.59918,2453.522,38.4881
2023-12-24T00:06:49,2420,42.8014,5.9826,13.2978,4.59911,2453.514,38.4874
2023-12-24T00:09:49,2420,42.8014,5.9826,13.2975,4.59914,2453.537,38.4879
2023-12-24T00:12:49,2420,42.8014,5.9826,13.2980,4.59908,2453.537,38.4868
2023-12-24T00:15:49,2420,42.8014,5.9826,13.2978,4.59914,2453.522,38.4876
2023-12-24T00:18:49,2420,42.8014,5.9826,13.2974,4.59904,2453.537,38.4870
2023-12-24T00:21:49,2420,42.8014,5.9826,13.2975,4.59911,2453.559,38.4875
2023-12-24T00:24:49,2420,42.8014,5.9826,13.2975,4.59906,2453.537,38.4871
2023-12-24T00:27:49,2420,42.8014,5.9826,13.2976,4.59905,2453.551,38.4869
2023-12-24T00:30:49,2420,42.8014,5.9826,13.2976,4.59909,2453.514,38.4873
2023-12-24T00:33:49,2420,42.8014,5.9826,13.2977,4.59911,2453.559,38.4875
2023-12-24T00:36:49,2420,42.8014,5.9826,13.2978,4.59908,2453.537,38.4870
2023-12-24T00:39:49,2420,42.8014,5.9826,13.2973,4.59905,2453.537,38.4872
2023-12-24T00:42:49,2420,42.8014,5.9826,13.2973,4.59915,2453.574,38.4881
2023-12-24T00:45:49,2420,42.8014,5.9826,13.2973,4.59907,2453.522,38.4875
2023-12-24T00:48:49,2420,42.8014,5.9826,13.2978,4.59908,2453.537,38.4870
2023-12-24T00:51:50,2420,42.8014,5.9826,13.2976,4.59907,2453.559,38.4871
2023-12-24T00:54:49,2420,42.8014,5.9826,13.2975,4.59909,2453.522,38.4874
2023-12-24T00:57:49,2420,42.8014,5.9826,13.2973,4.59916,2453.559,38.4882
2023-12-24T01:00:49,2420,42.8014,5.9826,13.2979,4.59914,2453.559,38.4875
2023-12-24T01:03:49,2420,42.8014,5.9826,13.2977,4.59920,2453.559,38.4883
2023-12-24T01:06:49,2420,42.8014,5.9826,13.2975,4.59916,2453.582,38.4880
2023-12-24T01:09:49,2420,42.8014,5.9826,13.2978,4.59911,2453.559,38.4872
2023-12-24T01:12:49,2420,42.8014,5.9826,13.2975,4.59912,2453.567,38.4877
2023-12-24T01:15:49,2420,42.8014,5.9826,13.2975,4.59917,2453.544,38.4881
2023-12-24T01:18:49,2420,42.8014,5.9826,13.2977,4.59915,2453.604,38.4878
2023-12-24T01:21:49,2420,42.8014,5.9826,13.2975,4.59913,2453.544,38.4878
2023-12-24T01:24:49,2420,42.8014,5.9826,13.2975,4.59905,2453.604,38.4870
2023-12-24T01:27:49,2420,42.8014,5.9826,13.2978,4.59902,2453.559,38.4864
2023-12-24T01:30:49,2420,42.8014,5.9826,13.2973,4.59909,2453.559,38.4876
2023-12-24T01:33:49,2420,42.8014,5.9826,13.2974,4.59911,2453.582,38.4877
2023-12-24T01:36:49,2420,42.8014,5.9826,13.2976,4.59912,2453.559,38.4876
2023-12-24T01:39:49,2420,42.8014,5.9826,13.2972,4.59908,2453.582,38.4876
2023-12-24T01:42:49,2420,42.8014,5.9826,13.2973,4.59902,2453.619,38.4869
2023-12-24T01:45:49,2420,42.8014,5.9826,13.2975,4.59903,2453.582,38.4868
2023-12-24T01:48:49,2420,42.8014,5.9826,13.2978,4.59906,2453.582,38.4869
2023-12-24T01:51:49,2420,42.8014,5.9826,13.2975,4.59909,2453.582,38.4875
2023-12-24T01:54:49,2420,42.8014,5.9826,13.2976,4.59906,2453.604,38.4869
2023-12-24T01:57:49,2420,42.8014,5.9826,13.2978,4.59906,2453.604,38.4868
2023-12-24T02:00:49,2420,42.8014,5.9826,13.2972,4.59904,2453.627,38.4872
2023-12-24T02:03:49,2420,42.8014,5.9826,13.2974,4.59900,2453.604,38.4867
2023-12-24T02:06:49,2420,42.8014,5.9826,13.2975,4.59900,2453.604,38.4865
2023-12-24T02:09:49,2420,42.8014,5.9826,13.2974,4.59906,2453.604,38.4872
2023-12-24T02:12:49,2420,42.8014,5.9826,13.2975,4.59902,2453.627,38.4867
2023-12-24T02:15:49,2420,42.8014,5.9826,13.2974,4.59900,2453.649,38.4867
2023-12-24T02:18:49,2420,42.8014,5.9826,13.2973,4.59901,2453.627,38.4868
2023-12-24T02:21:49,2420,42.8014,5.9826,13.2971,4.59906,2453.649,38.4874
2023-12-24T02:24:49,2420,42.8014,5.9826,13.2978,4.59900,2453.627,38.4862
2023-12-24T02:27:49,2420,42.8014,5.9826,13.2972,4.59906,2453.627,38.4874
2023-12-24T02:30:49,2420,42.8014,5.9826,13.2975,4.59901,2453.627,38.4867
2023-12-24T02:33:49,2420,42.8014,5.9826,13.2973,4.59904,2453.604,38.4871
2023-12-24T02:36:49,2420,42.8014,5.9826,13.2973,4.59900,2453.649,38.4867
2023-12-24T02:39:49,2420,42.8014,5.9826,13.2974,4.59902,2453.649,38.4868
2023-12-24T02:42:49,2420,42.8014,5.9826,13.2976,4.59899,2453.657,38.4863
2023-12-24T02:45:49,2420,42.8014,5.9826,13.2975,4.59901,2453.649,38.4867
2023-12-24T02:48:49,2420,42.8014,5.9826,13.2977,4.59903,2453.635,38.4866
2023-12-24T02:51:49,2420,42.8014,5.9826,13.2975,4.59900,2453.649,38.4866
2023-12-24T02:54:49,2420,42.8014,5.9826,13.2977,4.59903,2453.649,38.4866
2023-12-24T02:57:49,2420,42.8014,5.9826,13.2973,4.59901,2453.649,38.4868
2023-12-24T03:00:49,2420,42.8014,5.9826,13.2973,4.59900,2453.664,38.4867
2023-12-24T03:03:49,2420,42.8014,5.9826,13.2975,4.59903,2453.649,38.4868
2023-12-24T03:06:49,2420,42.8014,5.9826,13.2975,4.59900,2453.649,38.4865
2023-12-24T03:09:49,2420,42.8014,5.9826,13.2975,4.59905,2453.627,38.4870
2023-12-24T03:12:49,2420,42.8014,5.9826,13.2976,4.59901,2453.604,38.4865
2023-12-24T03:15:49,2420,42.8014,5.9826,13.2978,4.59900,2453.604,38.4862
2023-12-24T03:18:49,2420,42.8014,5.9826,13.2979,4.59903,2453.695,38.4864
2023-12-24T03:21:49,2420,42.8014,5.9826,13.2977,4.59899,2453.709,38.4862
2023-12-24T03:24:49,2420,42.8014,5.9826,13.2974,4.59903,2453.672,38.4869
2023-12-24T03:27:49,2420,42.8014,5.9826,13.2972,4.59904,2453.695,38.4872
2023-12-24T03:30:49,2420,42.8014,5.9826,13.2972,4.59902,2453.649,38.4870
2023-12-24T03:33:49,2420,42.8014,5.9826,13.2979,4.59904,2453.672,38.4865
2023-12-24T03:36:49,2420,42.8014,5.9826,13.2973,4.59900,2453.687,38.4867
2023-12-24T03:39:49,2420,42.8014,5.9826,13.2976,4.59906,2453.672,38.4870
2023-12-24T03:42:49,2420,42.8014,5.9826,13.2973,4.59903,2453.695,38.4870
2023-12-24T03:45:49,2420,42.8014,5.9826,13.2975,4.59900,2453.695,38.4865
2023-12-24T03:48:49,2420,42.8014,5.9826,13.2979,4.59911,2453.657,38.4872
2023-12-24T03:51:49,2420,42.8014,5.9826,13.2973,4.59900,2453.672,38.4867
2023-12-24T03:54:49,2420,42.8014,5.9826,13.2973,4.59901,2453.672,38.4868
2023-12-24T03:57:49,2420,42.8014,5.9826,13.2974,4.59897,2453.657,38.4863
2023-12-24T04:00:49,2420,42.8014,5.9826,13.2975,4.59904,2453.695,38.4869
2023-12-24T04:03:49,2420,42.8014,5.9826,13.2975,4.59904,2453.672,38.4869
2023-12-24T04:06:49,2420,42.8014,5.9826,13.2973,4.59902,2453.695,38.4868
2023-12-24T04:09:49,2420,42.8014,5.9826,13.2973,4.59903,2453.717,38.4870
2023-12-24T04:12:49,2420,42.8014,5.9826,13.2975,4.59907,2453.732,38.4872
2023-12-24T04:15:49,2420,42.8014,5.9826,13.2975,4.59905,2453.717,38.4870
2023-12-24T04:18:49,2420,42.8014,5.9826,13.2979,4.59900,2453.695,38.4860
2023-12-24T04:21:49,2420,42.8014,5.9826,13.2976,4.59905,2453.695,38.4868
2023-12-24T04:24:49,2420,42.8014,5.9826,13.2973,4.59906,2453.695,38.4872
2023-12-24T04:27:49,2420,42.8014,5.9826,13.2975,4.59908,2453.717,38.4873
2023-12-24T04:30:49,2420,42.8014,5.9826,13.2975,4.59907,2453.702,38.4872
2023-12-24T04:33:49,2420,42.8014,5.9826,13.2975,4.59905,2453.702,38.4870
2023-12-24T04:36:49,2420,42.8014,5.9826,13.2978,4.59916,2453.717,38.4877
2023-12-24T04:39:49,2420,42.8014,5.9826,13.2976,4.59908,2453.717,38.4871
2023-12-24T04:42:49,2420,42.8014,5.9826,13.2976,4.59904,2453.740,38.4868
2023-12-24T04:45:49,2420,42.8014,5.9826,13.2973,4.59905,2453.695,38.4872
2023-12-24T04:48:49,2420,42.8014,5.9826,13.2978,4.59909,2453.695,38.4870
2023-12-24T04:51:49,2420,42.8014,5.9826,13.2976,4.59911,2453.717,38.4875
2023-12-24T04:54:49,2420,42.8014,5.9826,13.2976,4.59910,2453.717,38.4873
2023-12-24T04:57:50,2420,42.8014,5.9826,13.2980,4.59907,2453.740,38.4866
2023-12-24T05:00:49,2420,42.8014,5.9826,13.2975,4.59903,2453.717,38.4868
2023-12-24T05:03:49,2420,42.8014,5.9826,13.2974,4.59905,2453.740,38.4870
2023-12-24T05:06:49,2420,42.8014,5.9826,13.2975,4.59908,2453.717,38.4872
2023-12-24T05:09:49,2420,42.8014,5.9826,13.2977,4.59901,2453.695,38.4864
2023-12-24T05:12:49,2420,42.8014,5.9826,13.2973,4.59904,2453.762,38.4871
2023-12-24T05:15:49,2420,42.8014,5.9826,13.2974,4.59900,2453.702,38.4866
2023-12-24T05:18:49,2420,42.8014,5.9826,13.2974,4.59900,2453.702,38.4866
2023-12-24T05:21:49,2420,42.8014,5.9826,13.2975,4.59900,2453.717,38.4864
2023-12-24T05:24:49,2420,42.8014,5.9826,13.2974,4.59901,2453.740,38.4867
2023-12-24T05:27:49,2420,42.8014,5.9826,13.2975,4.59902,2453.740,38.4867
2023-12-24T05:30:49,2420,42.8014,5.9826,13.2971,4.59907,2453.717,38.4875
2023-12-24T05:33:49,2420,42.8014,5.9826,13.2973,4.59909,2453.740,38.4875
2023-12-24T05:36:49,2420,42.8014,5.9826,13.2970,4.59904,2453.740,38.4873
2023-12-24T05:39:49,2420,42.8014,5.9826,13.2975,4.59905,2453.740,38.4870
2023-12-24T05:42:49,2420,42.8014,5.9826,13.2970,4.59900,2453.762,38.4870
2023-12-24T05:45:49,2420,42.8014,5.9826,13.2973,4.59903,2453.740,38.4870
2023-12-24T05:48:49,2420,42.8014,5.9826,13.2972,4.59910,2453.740,38.4877
2023-12-24T05:51:49,2420,42.8014,5.9826,13.2970,4.59910,2453.740,38.4879
2023-12-24T05:54:49,2420,42.8014,5.9826,13.2972,4.59907,2453.717,38.4875
2023-12-24T05:57:49,2420,42.8014,5.9826,13.2970,4.59906,2453.725,38.4876
2023-12-24T06:00:49,2420,42.8014,5.9826,13.2973,4.59922,2453.740,38.4888
2023-12-24T06:03:49,2420,42.8014,5.9826,13.2970,4.59906,2453.702,38.4876
2023-12-24T06:06:49,2420,42.8014,5.9826,13.2972,4.59909,2453.717,38.4876
2023-12-24T06:09:49,2420,42.8014,5.9826,13.2971,4.59910,2453.695,38.4878
2023-12-24T06:12:49,2420,42.8014,5.9826,13.2970,4.59911,2453.702,38.4880
2023-12-24T06:15:49,2420,42.8014,5.9826,13.2972,4.59906,2453.717,38.4874
2023-12-24T06:18:49,2420,42.8014,5.9826,13.2977,4.59908,2453.717,38.4871
2023-12-24T06:21:49,2420,42.8014,5.9826,13.2971,4.59909,2453.717,38.4877
2023-12-24T06:24:49,2420,42.8014,5.9826,13.2975,4.59903,2453.740,38.4868
2023-12-24T06:27:49,2420,42.8014,5.9826,13.2973,4.59904,2453.740,38.4871
2023-12-24T06:30:49,2420,42.8014,5.9826,13.2978,4.59906,2453.717,38.4868
2023-12-24T06:33:49,2420,42.8014,5.9826,13.2975,4.59915,2453.702,38.4879
2023-12-24T06:36:49,2420,42.8014,5.9826,13.2977,4.59937,2453.717,38.4898
2023-12-24T06:39:49,2420,42.8014,5.9826,13.2969,4.59910,2453.717,38.4880
2023-12-24T06:42:49,2420,42.8014,5.9826,13.2972,4.59906,2453.732,38.4873
2023-12-24T06:45:49,2420,42.8014,5.9826,13.2978,4.59914,2453.717,38.4875
2023-12-24T06:48:49,2420,42.8014,5.9826,13.2976,4.59911,2453.732,38.4874
2023-12-24T06:51:49,2420,42.8014,5.9826,13.2973,4.59915,2453.717,38.4880
2023-12-24T06:54:49,2420,42.8014,5.9826,13.2973,4.59910,2453.702,38.4876
2023-12-24T06:57:49,2420,42.8014,5.9826,13.2974,4.59909,2453.717,38.4875
2023-12-24T07:00:49,2420,42.8014,5.9826,13.2976,4.59901,2453.702,38.4865
2023-12-24T07:03:49,2420,42.8014,5.9826,13.2973,4.59900,2453.695,38.4866
2023-12-24T07:06:49,2420,42.8014,5.9826,13.2975,4.59906,2453.717,38.4871
2023-12-24T07:09:49,2420,42.8014,5.9826,13.2976,4.59907,2453.695,38.4871
2023-12-24T07:12:49,2420,42.8014,5.9826,13.2973,4.59903,2453.695,38.4869
2023-12-24T07:15:49,2420,42.8014,5.9826,13.2978,4.59904,2453.717,38.4866
2023-12-24T07:18:49,2420,42.8014,5.9826,13.2973,4.59906,2453.680,38.4873
2023-12-24T07:21:49,2420,42.8014,5.9826,13.2976,4.59906,2453.695,38.4869
2023-12-24T07:24:49,2420,42.8014,5.9826,13.2970,4.59907,2453.695,38.4876
2023-12-24T07:27:49,2420,42.8014,5.9826,13.2975,4.59915,2453.695,38.4879
2023-12-24T07:30:49,2420,42.8014,5.9826,13.2979,4.59923,2453.732,38.4882
2023-12-24T07:33:49,2420,42.8014,5.9826,13.2974,4.59923,2453.657,38.4887
2023-12-24T07:36:49,2420,42.8014,5.9826,13.2975,4.59917,2453.695,38.4881
2023-12-24T07:39:49,2420,42.8014,5.9826,13.2976,4.59909,2453.695,38.4872
2023-12-24T07:42:49,2420,42.8014,5.9826,13.2969,4.59908,2453.695,38.4878
2023-12-24T07:45:49,2420,42.8014,5.9826,13.2975,4.59915,2453.695,38.4879
2023-12-24T07:48:49,2420,42.8014,5.9826,13.2977,4.59915,2453.717,38.4878
2023-12-24T07:51:49,2420,42.8014,5.9826,13.2975,4.59908,2453.740,38.4873
2023-12-24T07:54:49,2420,42.8014,5.9826,13.2976,4.59911,2453.695,38.4874
2023-12-24T07:57:49,2420,42.8014,5.9826,13.2976,4.59909,2453.695,38.4873
2023-12-24T08:00:49,2420,42.8014,5.9826,13.2978,4.59915,2453.695,38.4875
2023-12-24T08:03:49,2420,42.8014,5.9826,13.2973,4.59908,2453.695,38.4874
2023-12-24T08:06:49,2420,42.8014,5.9826,13.2975,4.59932,2453.672,38.4896
2023-12-24T08:09:49,2420,42.8014,5.9826,13.2975,4.59920,2453.672,38.4883
2023-12-24T08:12:49,2420,42.8014,5.9826,13.2975,4.59936,2453.695,38.4899
2023-12-24T08:15:49,2420,42.8014,5.9826,13.2973,4.60028,2453.672,38.4988
2023-12-24T08:18:49,2420,42.8014,5.9826,13.2975,4.59955,2453.672,38.4917
2023-12-24T08:21:49,2420,42.8014,5.9826,13.2979,4.59943,2453.695,38.4901
2023-12-24T08:24:49,2420,42.8014,5.9826,13.2972,4.59971,2453.695,38.4935
2023-12-24T08:27:49,2420,42.8014,5.9826,13.2973,4.59959,2453.695,38.4923
2023-12-24T08:30:50,2420,42.8014,5.9826,13.2975,4.59988,2453.695,38.4948
2023-12-24T08:33:49,2420,42.8014,5.9826,13.2978,4.59956,2453.695,38.4915
2023-12-24T08:36:49,2420,42.8014,5.9826,13.2973,4.59917,2453.709,38.4883
2023-12-24T08:39:49,2420,42.8014,5.9826,13.2978,4.59919,2453.695,38.4880
2023-12-24T08:42:49,2420,42.8014,5.9826,13.2973,4.59917,2453.672,38.4883
2023-12-24T08:45:49,2420,42.8014,5.9826,13.2973,4.59920,2453.717,38.4885
2023-12-24T08:48:49,2420,42.8014,5.9826,13.2975,4.59917,2453.695,38.4881
2023-12-24T08:51:49,2420,42.8014,5.9826,13.2976,4.59922,2453.695,38.4884
2023-12-24T08:54:50,2420,42.8014,5.9826,13.2975,4.60011,2453.717,38.4970
2023-12-24T08:57:49,2420,42.8014,5.9826,13.2974,4.60114,2453.695,38.5068
2023-12-24T09:00:49,2420,42.8014,5.9826,13.2972,4.60062,2453.672,38.5021
2023-12-24T09:03:49,2420,42.8014,5.9826,13.2978,4.60173,2453.657,38.5120
2023-12-24T09:06:49,2420,42.8014,5.9826,13.2975,4.59997,2453.657,38.4957
2023-12-24T09:09:49,2420,42.8014,5.9826,13.2973,4.59965,2453.649,38.4929
2023-12-24T09:12:49,2420,42.8014,5.9826,13.2978,4.59955,2453.695,38.4914
2023-12-24T09:15:49,2420,42.8014,5.9826,13.2979,4.59943,2453.672,38.4901
2023-12-24T09:18:49,2420,42.8014,5.9826,13.2973,4.60078,2453.657,38.5035
2023-12-24T09:21:49,2420,42.8014,5.9826,13.2982,4.59991,2453.695,38.4945
2023-12-24T09:24:49,2420,42.8014,5.9826,13.2979,4.60011,2453.672,38.4966
2023-12-24T09:27:49,2420,42.8014,5.9826,13.2978,4.60284,2453.649,38.5225
2023-12-24T09:30:49,2420,42.8014,5.9826,13.2975,4.60022,2453.695,38.4980
2023-12-24T09:33:49,2420,42.8014,5.9826,13.2984,4.59988,2453.649,38.4939
2023-12-24T09:36:49,2420,42.8014,5.9826,13.3002,4.59968,2453.695,38.4902
2023-12-24T09:39:49,2420,42.8014,5.9826,13.2993,4.59942,2453.649,38.4887
2023-12-24T09:42:49,2420,42.8014,5.9826,13.3000,4.59954,2453.664,38.4890
2023-12-24T09:45:49,2420,42.8014,5.9826,13.2995,4.59933,2453.672,38.4876
2023-12-24T09:48:49,2420,42.8014,5.9826,13.2985,4.59947,2453.649,38.4900
2023-12-24T09:51:49,2420,42.8014,5.9826,13.2989,4.59985,2453.649,38.4932
2023-12-24T09:54:49,2420,42.8014,5.9826,13.3009,4.60062,2453.672,38.4985
2023-12-24T09:57:49,2420,42.8014,5.9826,13.3236,4.60374,2453.695,38.5053
2023-12-24T10:00:49,2420,42.8014,5.9826,13.3050,4.60052,2453.649,38.4934
2023-12-24T10:03:49,2420,42.8014,5.9826,13.3232,4.60155,2453.649,38.4850
2023-12-24T10:06:49,2420,42.8014,5.9826,13.3074,4.60351,2453.649,38.5193
2023-12-24T10:09:49,2420,42.8014,5.9826,13.2989,4.60075,2453.664,38.5016
2023-12-24T10:12:49,2420,42.8014,5.9826,13.3021,4.60081,2453.672,38.4990
2023-12-24T10:15:49,2420,42.8014,5.9826,13.3036,4.59982,2453.649,38.4882
2023-12-24T10:18:49,2420,42.8014,5.9826,13.2996,4.59969,2453.687,38.4909
2023-12-24T10:21:49,2420,42.8014,5.9826,13.3011,4.59946,2453.649,38.4874
2023-12-24T10:24:49,2420,42.8014,5.9826,13.3010,4.59947,2453.649,38.4875
2023-12-24T10:27:49,2420,42.8014,5.9826,13.3004,4.59951,2453.627,38.4884
2023-12-24T10:30:49,2420,42.8014,5.9826,13.2989,4.59946,2453.627,38.4895
2023-12-24T10:33:49,2420,42.8014,5.9826,13.2982,4.59940,2453.649,38.4896
2023-12-24T10:36:49,2420,42.8014,5.9826,13.3029,4.60131,2453.649,38.5030
2023-12-24T10:39:49,2420,42.8014,5.9826,13.3102,4.60196,2453.649,38.5018
2023-12-24T10:42:49,2420,42.8014,5.9826,13.2991,4.59942,2453.627,38.4890
2023-12-24T10:45:49,2420,42.8014,5.9826,13.2999,4.59943,2453.672,38.4882
2023-12-24T10:48:49,2420,42.8014,5.9826,13.2995,4.59946,2453.627,38.4888
2023-12-24T10:51:49,2420,42.8014,5.9826,13.2978,4.59944,2453.672,38.4904
2023-12-24T10:54:49,2420,42.8014,5.9826,13.2981,4.59928,2453.627,38.4886
2023-12-24T10:57:49,2420,42.8014,5.9826,13.2981,4.59928,2453.657,38.4886
2023-12-24T11:00:49,2420,42.8014,5.9826,13.2978,4.59942,2453.612,38.4902
2023-12-24T11:03:49,2420,42.8014,5.9826,13.2977,4.59965,2453.627,38.4925
2023-12-24T11:06:49,2420,42.8014,5.9826,13.2982,4.59950,2453.672,38.4906
2023-12-24T11:09:49,2420,42.8014,5.9826,13.2973,4.59924,2453.627,38.4889
2023-12-24T11:12:49,2420,42.8014,5.9826,13.2982,4.59920,2453.627,38.4878
2023-12-24T11:15:49,2420,42.8014,5.9826,13.2980,4.59927,2453.604,38.4886
2023-12-24T11:18:49,2420,42.8014,5.9826,13.2980,4.59932,2453.649,38.4890
2023-12-24T11:21:49,2420,42.8014,5.9826,13.2978,4.59918,2453.604,38.4880
2023-12-24T11:24:49,2420,42.8014,5.9826,13.2983,4.59911,2453.627,38.4868
2023-12-24T11:27:49,2420,42.8014,5.9826,13.2976,4.59918,2453.604,38.4881
2023-12-24T11:30:49,2420,42.8014,5.9826,13.2981,4.59924,2453.627,38.4882
2023-12-24T11:33:49,2420,42.8014,5.9826,13.2979,4.59920,2453.627,38.4880
2023-12-24T11:36:49,2420,42.8014,5.9826,13.2979,4.59926,2453.627,38.4886
2023-12-24T11:39:49,2420,42.8014,5.9826,13.2978,4.59926,2453.627,38.4887
2023-12-24T11:42:49,2420,42.8014,5.9826,13.2979,4.59942,2453.627,38.4900
2023-12-24T11:45:49,2420,42.8014,5.9826,13.2977,4.59926,2453.649,38.4888
2023-12-24T11:48:49,2420,42.8014,5.9826,13.2978,4.59926,2453.627,38.4886
2023-12-24T11:51:49,2420,42.8014,5.9826,13.2979,4.59917,2453.627,38.4877
2023-12-24T11:54:49,2420,42.8014,5.9826,13.2979,4.59927,2453.627,38.4887
2023-12-24T11:57:49,2420,42.8014,5.9826,13.2981,4.59923,2453.590,38.4881
2023-12-24T12:00:50,2420,42.8014,5.9826,13.2981,4.59918,2453.604,38.4877
2023-12-24T12:03:49,2420,42.8014,5.9826,13.2979,4.59931,2453.619,38.4891
2023-12-24T12:06:49,2420,42.8014,5.9826,13.2981,4.59946,2453.604,38.4902
2023-12-24T12:09:49,2420,42.8014,5.9826,13.2979,4.59935,2453.619,38.4894
2023-12-24T12:12:49,2420,42.8014,5.9826,13.2984,4.59933,2453.604,38.4887
2023-12-24T12:15:49,2420,42.8014,5.9826,13.2975,4.59954,2453.604,38.4916
2023-12-24T12:18:49,2420,42.8014,5.9826,13.2978,4.60005,2453.649,38.4961
2023-12-24T12:21:49,2420,42.8014,5.9826,13.2981,4.60172,2453.604,38.5116
2023-12-24T12:24:49,2420,42.8014,5.9826,13.2985,4.60076,2453.596,38.5022
2023-12-24T12:27:49,2420,42.8014,5.9826,13.2995,4.59990,2453.619,38.4931
2023-12-24T12:30:49,2420,42.8014,5.9826,13.2990,4.60234,2453.604,38.5166
2023-12-24T12:33:49,2420,42.8014,5.9826,13.2988,4.60015,2453.619,38.4961
2023-12-24T12:36:49,2420,42.8014,5.9826,13.3044,4.59999,2453.604,38.4890
2023-12-24T12:39:49,2420,42.8014,5.9826,13.3011,4.59968,2453.604,38.4894
2023-12-24T12:42:49,2420,42.8014,5.9826,13.2983,4.59949,2453.649,38.4904
2023-12-24T12:45:49,2420,42.8014,5.9826,13.2979,4.59940,2453.604,38.4899
2023-12-24T12:48:50,2420,42.8014,5.9826,13.2985,4.59949,2453.649,38.4902
2023-12-24T12:51:49,2420,42.8014,5.9826,13.2995,4.60155,2453.627,38.5086
2023-12-24T12:54:49,2420,42.8014,5.9826,13.3029,4.60025,2453.649,38.4929
2023-12-24T12:57:49,2420,42.8014,5.9826,13.3000,4.59993,2453.627,38.4928
2023-12-24T13:00:49,2420,42.8014,5.9826,13.3003,4.59955,2453.604,38.4889
2023-12-24T13:03:49,2420,42.8014,5.9826,13.3027,4.60022,2453.590,38.4929
2023-12-24T13:06:49,2420,42.8014,5.9826,13.3007,4.60133,2453.627,38.5054
2023-12-24T13:09:49,2420,42.8014,5.9826,13.3002,4.59970,2453.627,38.4904
2023-12-24T13:12:49,2420,42.8014,5.9826,13.3029,4.60159,2453.604,38.5057
2023-12-24T13:15:49,2420,42.8014,5.9826,13.3051,4.60110,2453.604,38.4988
2023-12-24T13:18:49,2420,42.8014,5.9826,13.3011,4.59999,2453.604,38.4924
2023-12-24T13:21:49,2420,42.8014,5.9826,13.3034,4.60208,2453.604,38.5097
2023-12-24T13:24:49,2420,42.8014,5.9826,13.3202,4.60059,2453.582,38.4790
2023-12-24T13:27:49,2420,42.8014,5.9826,13.3320,4.60640,2453.604,38.5221
2023-12-24T13:30:49,2420,42.8014,5.9826,13.3139,4.60143,2453.627,38.4931
2023-12-24T13:33:49,2420,42.8014,5.9826,13.3176,4.60283,2453.627,38.5027
2023-12-24T13:36:49,2420,42.8014,5.9826,13.3126,4.60276,2453.641,38.5071
2023-12-24T13:39:49,2420,42.8014,5.9826,13.3271,4.60210,2453.627,38.4864
2023-12-24T13:42:49,2420,42.8014,5.9826,13.3178,4.60195,2453.664,38.4942
2023-12-24T13:45:49,2420,42.8014,5.9826,13.3328,4.60072,2453.664,38.4677
2023-12-24T13:48:49,2420,42.8014,5.9826,13.3172,4.60169,2453.582,38.4924
2023-12-24T13:51:49,2420,42.8014,5.9826,13.3752,4.60289,2453.627,38.4461
2023-12-24T13:54:49,2420,42.8014,5.9826,13.3658,4.60245,2453.641,38.4513
2023-12-24T13:57:49,2420,42.8014,5.9826,13.3326,4.60304,2453.664,38.4898
2023-12-24T14:00:49,2420,42.8014,5.9826,13.3111,4.60604,2453.627,38.5394
2023-12-24T14:03:49,2420,42.8014,5.9826,13.3255,4.60379,2453.627,38.5039
2023-12-24T14:06:49,2420,42.8014,5.9826,13.3257,4.60359,2453.619,38.5019
2023-12-24T14:09:49,2420,42.8014,5.9826,13.3263,4.60164,2453.604,38.4829
2023-12-24T14:12:49,2420,42.8014,5.9826,13.3262,4.59959,2453.619,38.4637
2023-12-24T14:15:49,2420,42.8014,5.9826,13.3422,4.59992,2453.604,38.4508
2023-12-24T14:18:49,2420,42.8014,5.9826,13.3438,4.60299,2453.641,38.4782
2023-12-24T14:21:49,2420,42.8014,5.9826,13.3333,4.60490,2453.687,38.5066
2023-12-24T14:24:49,2420,42.8014,5.9826,13.3368,4.60342,2453.649,38.4892
2023-12-24T14:27:49,2420,42.8014,5.9826,13.3170,4.60422,2453.641,38.5164
2023-12-24T14:30:49,2420,42.8014,5.9826,13.3176,4.60467,2453.627,38.5200
2023-12-24T14:33:50,2420,42.8014,5.9826,13.3299,4.60267,2453.672,38.4890
2023-12-24T14:36:49,2420,42.8014,5.9826,13.3050,4.60095,2453.709,38.4974
2023-12-24T14:39:49,2420,42.8014,5.9826,13.3061,4.60246,2453.687,38.5106
2023-12-24T14:42:49,2420,42.8014,5.9826,13.3209,4.60166,2453.664,38.4883
2023-12-24T14:45:49,2420,42.8014,5.9826,13.3055,4.60055,2453.627,38.4932
2023-12-24T14:48:49,2420,42.8014,5.9826,13.3092,4.60047,2453.687,38.4888
2023-12-24T14:51:49,2420,42.8014,5.9826,13.3027,4.60067,2453.695,38.4971
2023-12-24T14:54:49,2420,42.8014,5.9826,13.3098,4.60008,2453.649,38.4846
2023-12-24T14:57:49,2420,42.8014,5.9826,13.3103,4.60002,2453.672,38.4835
2023-12-24T15:00:49,2420,42.8014,5.9826,13.3092,4.60003,2453.672,38.4846
2023-12-24T15:03:49,2420,42.8014,5.9826,13.3016,4.60004,2453.687,38.4923
2023-12-24T15:06:49,2420,42.8014,5.9826,13.3108,4.60075,2453.687,38.4898
2023-12-24T15:09:49,2420,42.8014,5.9826,13.3089,4.60060,2453.672,38.4903
2023-12-24T15:12:49,2420,42.8014,5.9826,13.3041,4.59977,2453.649,38.4872
2023-12-24T15:15:49,2420,42.8014,5.9826,13.3079,4.60019,2453.695,38.4874
2023-12-24T15:18:49,2420,42.8014,5.9826,13.3096,4.60076,2453.687,38.4910
2023-12-24T15:21:49,2420,42.8014,5.9826,13.3053,4.60012,2453.687,38.4894
2023-12-24T15:24:49,2420,42.8014,5.9826,13.3027,4.60016,2453.709,38.4923
2023-12-24T15:27:49,2420,42.8014,5.9826,13.3171,4.60079,2453.695,38.4839
2023-12-24T15:30:49,2420,42.8014,5.9826,13.3107,4.59988,2453.695,38.4817
2023-12-24T15:33:49,2420,42.8014,5.9826,13.3012,4.59985,2453.695,38.4908
2023-12-24T15:36:49,2420,42.8014,5.9826,13.3080,4.59971,2453.717,38.4828
2023-12-24T15:39:49,2420,42.8014,5.9826,13.3120,4.60019,2453.702,38.4833
2023-12-24T15:42:49,2420,42.8014,5.9826,13.3073,4.60011,2453.695,38.4872
2023-12-24T15:45:49,2420,42.8014,5.9826,13.2997,4.59992,2453.695,38.4930
2023-12-24T15:48:49,2420,42.8014,5.9826,13.3027,4.60049,2453.695,38.4954
2023-12-24T15:51:49,2420,42.8014,5.9826,13.3044,4.59988,2453.687,38.4879
2023-12-24T15:54:49,2420,42.8014,5.9826,13.3046,4.59985,2453.725,38.4874
2023-12-24T15:57:49,2420,42.8014,5.9826,13.3091,4.59951,2453.717,38.4797
2023-12-24T16:00:49,2420,42.8014,5.9826,13.3041,4.60005,2453.740,38.4898
2023-12-24T16:03:49,2420,42.8014,5.9826,13.3041,4.59985,2453.717,38.4880